Date String (YYYY-MM-DD hh:mm:ss) UTC,Instrument flags,Ambient pressure (hPa),Sample flow (lpm),Bypass flow (lpm),Sample temperature (°C),Ambient temperature (°C),ASC tube jacket temperature (°C),LED temperature (°C),Box temperature (°C),Sample RH (%),Span deviation,Mass concentration (μg/m³),Mass concentration (μg/m³),Mass concentration (μg/m³)
DateTimeUTC,F1_M11,P_M11,Q1_M11,Q2_M11,T1_M11,T2_M11,T3_M11,T4_M11,T5_M11,U1_M11,ZSPAN_M11,X0_M11,X2_M11,X1_M11
2022-02-15 10:00:00,,0817.8,5.01,0.00,22.9,22.2,00.0,31.9,24.7,04.6,0000.0,0004.12,0001.73,0001.28
2022-02-15 10:01:00,,0817.8,5.01,0.00,22.9,22.1,00.0,31.9,24.6,05.8,0000.0,0004.06,0001.70,0001.28
2022-02-15 10:02:00,,0817.7,5.00,0.00,22.8,22.0,00.0,31.9,24.6,06.0,0000.0,0004.06,0001.71,0001.29
2022-02-15 10:03:00,,0817.7,4.99,0.00,22.8,22.0,00.0,31.9,24.5,05.6,0000.0,0003.26,0001.69,0001.30
2022-02-15 10:04:00,,0817.6,4.99,0.00,22.7,21.9,00.0,31.9,24.4,05.4,0000.0,0002.76,0001.65,0001.30
2022-02-15 10:05:00,,0817.6,5.01,0.00,22.7,21.8,00.0,31.9,24.4,05.4,0000.0,0002.87,0001.69,0001.30
2022-02-15 10:06:00,,0817.6,5.01,0.00,22.6,21.8,00.0,31.8,24.3,05.3,0000.0,0002.90,0001.70,0001.30
2022-02-15 10:07:00,,0817.6,4.99,0.00,22.6,21.7,00.0,31.8,24.3,05.3,0000.0,0002.86,0001.68,0001.30
2022-02-15 10:08:00,,0817.6,4.99,0.00,22.6,21.7,00.0,31.8,24.3,05.3,0000.0,0002.89,0001.71,0001.31
2022-02-15 10:09:00,,0817.6,5.02,0.00,22.6,21.7,00.0,31.8,24.2,05.2,0000.0,0002.97,0001.72,0001.31
2022-02-15 10:10:00,,0817.6,5.00,0.00,22.6,21.8,00.0,31.7,24.2,04.8,0000.0,0002.76,0001.74,0001.32
2022-02-15 10:11:00,,0817.6,5.01,0.00,22.6,21.8,00.0,31.7,24.3,04.7,0000.0,0002.65,0001.75,0001.32
2022-02-15 10:12:00,,0817.6,4.99,0.00,22.6,21.8,00.0,31.7,24.3,04.7,0000.0,0002.90,0001.81,0001.32
2022-02-15 10:13:00,,0817.6,5.01,0.00,22.6,21.9,00.0,31.7,24.4,05.0,0000.0,0003.02,0001.85,0001.32
2022-02-15 10:14:00,,0817.6,5.00,0.00,22.6,21.9,00.0,31.7,24.3,05.2,0000.0,0003.16,0001.89,0001.32
2022-02-15 10:15:00,,0817.6,4.99,0.00,22.6,21.9,00.0,31.7,24.3,05.4,0000.0,0003.13,0001.88,0001.32
2022-02-15 10:16:00,,0817.6,5.01,0.00,22.6,21.9,00.0,31.7,24.3,05.4,0000.0,0003.03,0001.86,0001.32
2022-02-15 10:17:00,,0817.5,5.01,0.00,22.6,21.9,00.0,31.7,24.4,05.3,0000.0,0003.01,0001.83,0001.30
2022-02-15 10:18:00,,0817.5,4.98,0.00,22.6,21.9,00.0,31.7,24.3,05.3,0000.0,0003.06,0001.85,0001.30
2022-02-15 10:19:00,,0817.5,5.00,0.00,22.6,21.8,00.0,31.7,24.3,05.2,0000.0,0003.07,0001.83,0001.29
2022-02-15 10:20:00,,0817.5,4.99,0.00,22.6,21.8,00.0,31.7,24.3,05.2,0000.0,0003.04,0001.83,0001.30
2022-02-15 10:21:00,,0817.6,5.00,0.00,22.6,21.8,00.0,31.6,24.2,04.9,0000.0,0002.90,0001.78,0001.28
2022-02-15 10:22:00,,0817.6,5.01,0.00,22.6,21.8,00.0,31.6,24.2,04.8,0000.0,0002.79,0001.74,0001.28
2022-02-15 10:23:00,,0817.5,4.99,0.00,22.6,21.8,00.0,31.6,24.2,05.2,0000.0,0002.67,0001.72,0001.28
2022-02-15 10:24:00,,0817.5,4.99,0.00,22.6,21.9,00.0,31.6,24.3,05.4,0000.0,0003.75,0001.72,0001.28
2022-02-15 10:25:00,,0817.4,5.01,0.00,22.6,21.9,00.0,31.6,24.3,05.5,0000.0,0003.76,0001.70,0001.28
2022-02-15 10:26:00,,0817.4,5.00,0.00,22.6,21.9,00.0,31.6,24.3,05.4,0000.0,0003.87,0001.71,0001.28
2022-02-15 10:27:00,,0817.4,5.00,0.00,22.6,21.9,00.0,31.6,24.3,05.5,0000.0,0003.93,0001.72,0001.27
2022-02-15 10:28:00,,0817.5,5.00,0.00,22.6,21.9,00.0,31.6,24.3,05.4,0000.0,0003.99,0001.76,0001.27
2022-02-15 10:29:00,,0817.5,5.01,0.00,22.6,21.9,00.0,31.6,24.3,05.3,0000.0,0004.05,0001.78,0001.27
2022-02-15 10:30:00,,0817.4,5.00,0.00,22.6,21.9,00.0,31.6,24.3,05.1,0000.0,0004.04,0001.77,0001.27
2022-02-15 10:31:00,,0817.3,4.99,0.00,22.6,21.9,00.0,31.6,24.3,05.0,0000.0,0004.01,0001.74,0001.26
2022-02-15 10:32:00,,0817.4,5.00,0.00,22.6,21.9,00.0,31.6,24.3,04.8,0000.0,0004.07,0001.74,0001.25
2022-02-15 10:33:00,,0817.4,5.00,0.00,22.6,21.9,00.0,31.6,24.3,04.7,0000.0,0004.22,0001.77,0001.25
2022-02-15 10:34:00,,0817.4,5.01,0.00,22.6,21.8,00.0,31.6,24.3,04.6,0000.0,0004.21,0001.74,0001.25
2022-02-15 10:35:00,,0817.4,5.00,0.00,22.6,21.8,00.0,31.6,24.3,04.6,0000.0,0003.26,0001.71,0001.24
2022-02-15 10:36:00,,0817.4,5.00,0.00,22.6,21.9,00.0,31.6,24.3,04.5,0000.0,0003.03,0001.70,0001.23
2022-02-15 10:37:00,,0817.3,5.01,0.00,22.6,21.9,00.0,31.6,24.4,04.5,0000.0,0003.04,0001.72,0001.24
2022-02-15 10:38:00,,0817.3,5.00,0.00,22.6,21.9,00.0,31.6,24.4,04.5,0000.0,0003.05,0001.71,0001.24
2022-02-15 10:39:00,,0817.3,5.00,0.00,22.7,21.9,00.0,31.6,24.4,04.9,0000.0,0002.93,0001.66,0001.23
2022-02-15 10:40:00,,0817.4,4.99,0.00,22.7,22.0,00.0,31.6,24.4,05.1,0000.0,0002.88,0001.64,0001.22
2022-02-15 10:41:00,,0817.4,5.01,0.00,22.7,22.0,00.0,31.6,24.5,05.4,0000.0,0002.94,0001.67,0001.22
2022-02-15 10:42:00,,0817.4,5.00,0.00,22.7,22.0,00.0,31.6,24.5,05.1,0000.0,0002.90,0001.69,0001.22
2022-02-15 10:43:00,,0817.4,4.98,0.00,22.7,22.0,00.0,31.7,24.4,04.7,0000.0,0002.87,0001.69,0001.23
2022-02-15 10:44:00,,0817.4,5.02,0.00,22.7,21.9,00.0,31.7,24.4,04.8,0000.0,0003.14,0001.66,0001.23
2022-02-15 10:45:00,,0817.4,5.00,0.00,22.6,21.9,00.0,31.7,24.4,04.9,0000.0,0003.26,0001.65,0001.23
2022-02-15 10:46:00,,0817.2,5.00,0.00,22.6,21.9,00.0,31.7,24.4,04.9,0000.0,0003.25,0001.67,0001.23
2022-02-15 10:47:00,,0817.2,5.02,0.00,22.6,21.9,00.0,31.6,24.3,05.1,0000.0,0003.24,0001.68,0001.23
2022-02-15 10:48:00,,0817.2,4.99,0.00,22.6,21.9,00.0,31.6,24.3,05.4,0000.0,0003.29,0001.69,0001.23
2022-02-15 10:49:00,,0817.3,4.99,0.00,22.6,21.9,00.0,31.6,24.3,05.0,0000.0,0003.28,0001.70,0001.23
2022-02-15 10:50:00,,0817.3,5.01,0.00,22.6,21.9,00.0,31.6,24.4,04.8,0000.0,0003.22,0001.68,0001.22
2022-02-15 10:51:00,,0817.3,4.99,0.00,22.6,21.9,00.0,31.6,24.4,04.8,0000.0,0003.17,0001.66,0001.23
2022-02-15 10:52:00,,0817.4,5.02,0.00,22.6,21.9,00.0,31.6,24.4,05.1,0000.0,0003.14,0001.65,0001.23
2022-02-15 10:53:00,,0817.4,4.98,0.00,22.6,21.9,00.0,31.6,24.4,05.0,0000.0,0003.17,0001.66,0001.23
2022-02-15 10:54:00,,0817.3,5.01,0.00,22.6,21.9,00.0,31.6,24.4,04.8,0000.0,0003.29,0001.70,0001.24
2022-02-15 10:55:00,,0817.3,4.99,0.00,22.6,21.9,00.0,31.7,24.4,04.7,0000.0,0003.20,0001.73,0001.24
2022-02-15 10:56:00,,0817.3,5.00,0.00,22.6,21.9,00.0,31.6,24.4,04.6,0000.0,0002.93,0001.76,0001.24
2022-02-15 10:57:00,,0817.3,5.02,0.00,22.7,21.9,00.0,31.6,24.4,04.6,0000.0,0002.93,0001.76,0001.25
2022-02-15 10:58:00,,0817.3,4.99,0.00,22.7,21.9,00.0,31.6,24.4,04.7,0000.0,0003.02,0001.79,0001.26
2022-02-15 10:59:00,,0817.3,5.01,0.00,22.7,21.9,00.0,31.7,24.4,04.8,0000.0,0002.98,0001.75,0001.25
